User: anonymous   Login
Location: Syracuse
(43.0480°N, 76.1480°W)
Time: 05:11:59
(UTC-04:00)
Language:

Cosmos 1140 Rocket - Orbit

View from above orbital plane
View from above orbital plane
View from above satellite
View from above satellite

Ground track
Ground track

The orbit data is extracted from the following two-line orbital elements,

1 11574U 79089B   17230.90763749 +.00000006 +00000-0 +10276-4 0  9995
2 11574 074.0691 103.2765 0016009 348.5693 011.5096 14.40633748985986
Epoch (UTC): 18 August 2017 21:46:59
Eccentricity: 0.0016009
inclination: 74.0691°
perigee height: 745 km
apogee height: 768 km
right ascension of ascending node: 103.2765°
argument of perigee: 348.5693°
revolutions per day: 14.40633748
mean anomaly at epoch: 11.5096°
orbit number at epoch: 98598

The dashed part of the orbit path shows where the satellite is in the earth's shadow,  

DLR